Location: Bemmer
(51.5498°N, 5.6249°E)
Time: 12:43:14
(UTC+00:00)

Meteor 2-20 Rocket - Pass Details

Date: 03 March 2021
Orbit: 941 x 958 km, 82.5° (Epoch: 17 April)

Event Time Altitude Azimuth Distance (km) Brightness Sun altitude
Rises 19:39:19 0° 350° (N) 3,623 7.9 -22.0°
Reaches altitude 10° 19:41:52 10° 355° (N) 2,676 7.1 -22.3°
Maximum altitude 19:47:54 60° 75° (ENE) 1,083 4.4 -23.2°
Enters shadow 19:49:09 50° 120° (ESE) 1,195 4.5 -23.4°
